Powrót do katalogu

THORAD AGENA D DEB

AktywnyPO
NORAD 42536·DEBRIS·🇺🇸 United States

Wystrzelony Apr 8, 1970 z Vandenberg Space Force Base

Loading…

Następne Przeloty (najbliższe 24 godziny)

TLE

ŚwieżeSource: Space-Track

Epoka: Sep 14, 2026, 03:08 UTC

1 42536U 70025SS  26257.13112899  .00002927  00000-0  15490-2 0  9991
2 42536  99.5022 209.6287 0059809  87.2768 273.5246 14.13663136653076

Śledź THORAD AGENA D DEB w czasie rzeczywistym z AllMySat

Download on the App Store